Location: Unspecified
(39.5186°N, 0.0000°E)
Time: 12:13:38
(UTC+00:00)

Altair 2 - Visible Passes

Search period start: 04 April 2026 00:00
Search period end: 14 April 2026 00:00
Orbit: 701 x 2523 km, 96.4° (Epoch: 29 March)

Date Brightness Start Highest point End Pass type
(mag) Time Alt. Az. Time Alt. Az. Time Alt. Az.
4 Apr 9.9 21:19:29 10° NE 21:21:46 21° NE 21:21:46 21° NE visible
4 Apr 9.6 23:16:29 10° N 23:20:19 35° NNW 23:20:19 35° NNW visible
5 Apr 10.0 21:02:14 10° NE 21:04:23 18° ENE 21:04:23 18° ENE visible
5 Apr 9.4 22:58:37 10° N 23:02:57 44° NNW 23:02:57 44° NNW visible
6 Apr 10.2 20:45:12 10° NE 20:47:02 15° ENE 20:47:02 15° ENE visible
6 Apr 9.1 22:40:50 10° N 22:45:36 53° N 22:45:36 53° N visible
7 Apr 10.7 00:41:59 10° NW 00:44:09 12° WNW 00:44:09 12° WNW visible
7 Apr 10.3 20:28:29 10° ENE 20:29:42 13° ENE 20:29:42 13° ENE visible
7 Apr 9.0 22:23:06 10° N 22:28:16 59° NNE 22:28:16 59° NNE visible
8 Apr 10.5 00:22:49 10° NNW 00:26:49 16° WNW 00:26:49 16° WNW visible
8 Apr 8.9 22:05:26 10° NNE 22:10:57 60° NE 22:10:57 60° NE visible
9 Apr 10.3 00:04:21 10° NNW 00:09:30 22° WNW 00:09:30 22° WNW visible
9 Apr 9.0 21:47:51 10° NNE 21:53:39 54° ENE 21:53:39 54° ENE visible
9 Apr 10.1 23:46:08 10° NNW 23:52:04 28° WNW 23:52:12 28° WNW visible
10 Apr 9.2 21:30:19 10° NNE 21:36:23 47° ENE 21:36:23 47° ENE visible
10 Apr 9.8 23:28:05 10° N 23:34:36 36° WNW 23:34:56 36° WNW visible
11 Apr 9.4 21:12:53 10° NNE 21:19:06 39° E 21:19:06 39° E visible
11 Apr 9.6 23:10:09 10° N 23:17:07 45° WNW 23:17:41 45° W visible
12 Apr 9.7 20:55:32 10° NNE 21:01:53 33° E 21:01:53 33° E visible
12 Apr 9.3 22:52:18 10° N 22:59:38 56° WNW 23:00:26 55° W visible
13 Apr 9.9 20:38:20 10° NE 20:44:40 27° E 20:44:40 27° E visible
13 Apr 9.1 22:34:30 10° N 22:42:10 69° WNW 22:43:13 65° WSW visible
